Weather in Tokarevo

Russia / Ryazan Oblast     54°50′00″N   41°15′43″E
temp.,
°C
wind,
m/s
gust,
m/s
humid.,
%
clouds,
%
prec.,
mm/h
press.,
hPa
HPBL,
m
3 march, wed
wed300:00−3nw4109699 0.1 1007362
03:00−3nw4119697 0.1 1009484
06:00−6nw5129183 0.1 1011393
09:00−6nw6139066 0.1 1013578
12:00−3nw698482 0.0 1013927
15:00−1wnw587874 0.1 10131101
18:00−2w4109398 0.1 1012637
21:00−2w5129299 0.1 1012689
4 march, thu
thu400:00−2wsw61293100 0.1 1008716
03:00−2wsw61392100 0.2 1006704
06:00−1wsw61394100 0.1 1003752
09:000wsw81397100 0.6 1002948
12:000w71297100 0.1 1001822
15:000wsw61099100 0.5 1001651
18:00−1nnw2399100 2.6 1000232
21:00−3ene2398100 5.4 999116
5 march, fri
fri500:00−3ne3697100 1.7 999327
03:00−4n3697100 2.4 1000225
06:00−7nnw4895100 0.1 1002250
09:00−8n369490 0.1 1006255
12:00−5nnw238544 0.0 1008514
15:00−3wnw237754 0.0 1009747
18:00−7ssw228779 0.0 101022
21:00−9ssw349171 0.0 101281
6 march, sat
sat600:00−8sw379791 0.3 1012196
03:00−11wnw369575 0.3 1013102
06:00−13wnw36950 0.0 1013103
09:00−10nw36949 0.0 1014263
12:00−8nw478589 0.0 1015766
15:00−8nw577895 0.1 10151138
18:00−12wnw338759 0.0 101639
21:00−13wsw349129 0.0 101679
7 march, sun
sun700:00−13sw499148 0.0 1015191
03:00−13sw5119037 0.0 1012232
06:00−11sw7158865 0.0 1008493
09:00−7sw9168683 0.3 1005994
12:00−5sw101793100 1.1 10011194
15:00−3sw101894100 3.2 9971284
18:00−2wsw101893100 1.5 9951296
21:00−6wnw5128183 2.7 997438